| time (UTC) | temp F | wind direction | speed MPH | gust MPH | rain 1hr in | rain 24hr in | rain mn in | humidity % | barometer mb |
| 20260505163302 | 54 | 113 | 2.0 | 3.0 | 0.00 | 0.00 | 0.02 | 50 | 1012.2 |
| 20260505162202 | 53 | 180 | 3.0 | 3.0 | 0.00 | 0.00 | 0.02 | 54 | 1011.9 |
| 20260505161102 | 52 | 203 | 2.0 | 3.0 | 0.00 | 0.00 | 0.02 | 55 | 1011.9 |
| 20260505152702 | 50 | 180 | 3.0 | 3.0 | 0.00 | 0.00 | 0.02 | 61 | 1011.9 |
| 20260505151701 | 49 | 68 | 2.0 | 4.0 | 0.00 | 0.00 | 0.02 | 61 | 1011.5 |
| 20260505150602 | 49 | 180 | 5.0 | 5.0 | 0.00 | 0.00 | 0.02 | 65 | 1011.5 |
| 20260505123102 | 46 | 68 | 1.0 | 2.0 | 0.00 | 0.00 | 0.02 | 79 | 1009.8 |
| 20260505122102 | 45 | 158 | 1.0 | 2.0 | 0.00 | 0.00 | 0.02 | 74 | 1009.8 |
| 20260505121003 | 45 | 158 | 1.0 | 1.0 | 0.00 | 0.00 | 0.02 | 71 | 1009.1 |
| 20260505115902 | 45 | 158 | 0.0 | 0.0 | 0.00 | 0.00 | 0.02 | 76 | 1009.5 |
| 20260505114902 | 45 | 158 | 0.0 | 0.0 | 0.00 | 0.00 | 0.02 | 80 | 1009.1 |
| 20260505113702 | 45 | 158 | 0.0 | 0.0 | 0.00 | 0.00 | 0.02 | 81 | 1009.1 |
| 20260505112102 | 45 | 158 | 0.0 | 0.0 | 0.00 | 0.00 | 0.02 | 80 | 1009.1 |
| 20260505110802 | 45 | 158 | 0.0 | 0.0 | 0.00 | 0.00 | 0.02 | 81 | 1008.8 |
| 20260505101902 | 46 | 158 | 0.0 | 0.0 | 0.00 | 0.00 | 0.02 | 81 | 1009.1 |
| 20260505100702 | 46 | 90 | 0.0 | 0.0 | 0.00 | 0.00 | 0.02 | 81 | 1009.1 |
| 20260505095402 | 46 | 45 | 2.0 | 2.0 | 0.00 | 0.00 | 0.02 | 81 | 1009.1 |
| 20260505094302 | 47 | 23 | 0.0 | 2.0 | 0.00 | 0.00 | 0.02 | 80 | 1008.8 |
| 20260505093202 | 46 | 158 | 0.0 | 2.0 | 0.00 | 0.00 | 0.02 | 80 | 1008.8 |
| 20260505092102 | 46 | 180 | 0.0 | 3.0 | 0.00 | 0.00 | 0.02 | 80 | 1008.8 |
| 20260505085802 | 47 | 338 | 1.0 | 2.0 | 0.00 | 0.00 | 0.02 | 81 | 1008.1 |
| 20260505084702 | 47 | 225 | 1.0 | 2.0 | 0.00 | 0.00 | 0.02 | 83 | 1008.5 |
| 20260505083702 | 47 | 45 | 1.0 | 2.0 | 0.00 | 0.00 | 0.02 | 83 | 1008.1 |
| 20260505082602 | 47 | 68 | 2.0 | 2.0 | 0.00 | 0.00 | 0.02 | 83 | 1008.1 |
| 20260505081502 | 47 | 23 | 1.0 | 1.0 | 0.00 | 0.00 | 0.02 | 83 | 1007.8 |
| 20260505080402 | 47 | 68 | 0.0 | 0.0 | 0.00 | 0.00 | 0.02 | 85 | 1007.8 |
| 20260505075304 | 47 | 158 | 0.0 | 0.0 | 0.00 | 0.00 | 0.02 | 86 | 1007.5 |
| 20260505074202 | 47 | 45 | 1.0 | 3.0 | 0.00 | 0.00 | 0.02 | 86 | 1007.5 |
| 20260505073102 | 47 | 68 | 1.0 | 2.0 | 0.00 | 0.00 | 0.02 | 85 | 1007.8 |
| 20260505072002 | 47 | 45 | 1.0 | 3.0 | 0.00 | 0.00 | 0.02 | 83 | 1007.8 |
| 20260505070902 | 47 | 45 | 2.0 | 2.0 | 0.00 | 0.00 | 0.02 | 83 | 1007.5 |
| 20260505065802 | 47 | 158 | 0.0 | 1.0 | 0.01 | 0.00 | 0.02 | 81 | 1007.1 |
| 20260505064502 | 47 | 158 | 1.0 | 1.0 | 0.01 | 0.00 | 0.02 | 81 | 1007.1 |
| 20260505063402 | 47 | 158 | 0.0 | 0.0 | 0.01 | 0.00 | 0.02 | 81 | 1007.5 |
| 20260505062304 | 47 | 158 | 2.0 | 2.0 | 0.01 | 0.00 | 0.02 | 81 | 1007.5 |
| 20260505061102 | 47 | 158 | 1.0 | 2.0 | 0.01 | 0.00 | 0.02 | 81 | 1008.1 |
| 20260505055902 | 47 | 158 | 2.0 | 2.0 | 0.01 | 0.00 | 0.01 | 81 | 1007.8 |
| 20260505054602 | 47 | 158 | 1.0 | 2.0 | 0.01 | 0.00 | 0.01 | 79 | 1007.8 |
| 20260505053502 | 47 | 158 | 1.0 | 2.0 | 0.01 | 0.00 | 0.01 | 79 | 1008.1 |
| 20260505052304 | 47 | 158 | 1.0 | 3.0 | 0.01 | 0.00 | 0.01 | 79 | 1007.5 |
| 20260505051202 | 47 | 180 | 1.0 | 3.0 | 0.00 | 0.00 | 0.00 | 76 | 1007.5 |
| 20260505040802 | 53 | 113 | 2.0 | 7.0 | 0.00 | 0.00 | 0.00 | 50 | 1007.8 |
| 20260505034602 | 54 | 158 | 1.0 | 7.0 | 0.00 | 0.00 | 0.00 | 45 | 1007.5 |
| 20260505033502 | 54 | 180 | 4.0 | 6.0 | 0.00 | 0.00 | 0.00 | 45 | 1007.5 |
| 20260505032402 | 54 | 180 | 3.0 | 7.0 | 0.00 | 0.00 | 0.00 | 45 | 1007.5 |
| 20260505031302 | 55 | 135 | 4.0 | 6.0 | 0.00 | 0.00 | 0.00 | 45 | 1007.5 |
| 20260505025003 | 55 | 248 | 10.0 | 10.0 | 0.00 | 0.00 | 0.00 | 45 | 1006.4 |
| 20260505023902 | 55 | 135 | 8.0 | 12.0 | 0.00 | 0.00 | 0.00 | 45 | 1006.4 |
| 20260505022702 | 56 | 158 | 9.0 | 9.0 | 0.00 | 0.00 | 0.00 | 44 | 1006.4 |
| 20260505020502 | 56 | 135 | 4.0 | 6.0 | 0.00 | 0.00 | 0.00 | 45 | 1006.1 |
| 20260505015402 | 57 | 180 | 3.0 | 9.0 | 0.00 | 0.00 | 0.00 | 45 | 1006.1 |
| 20260505014302 | 57 | 248 | 4.0 | 15.0 | 0.00 | 0.00 | 0.00 | 44 | 1005.8 |
| 20260505013203 | 57 | 158 | 15.0 | 15.0 | 0.00 | 0.00 | 0.00 | 44 | 1005.4 |
| 20260505012103 | 58 | 225 | 8.0 | 9.0 | 0.00 | 0.00 | 0.00 | 41 | 1005.1 |
| 20260505011003 | 60 | 293 | 5.0 | 5.0 | 0.00 | 0.00 | 0.00 | 40 | 1005.1 |
| 20260505004702 | 62 | 180 | 5.0 | 7.0 | 0.00 | 0.00 | 0.00 | 37 | 1004.7 |
| 20260505003602 | 63 | 180 | 3.0 | 13.0 | 0.00 | 0.00 | 0.00 | 37 | 1004.7 |
| 20260505002503 | 64 | 180 | 6.0 | 7.0 | 0.00 | 0.00 | 0.00 | 35 | 1004.7 |
| 20260505000204 | 66 | 135 | 9.0 | 9.0 | 0.00 | 0.00 | 0.00 | 35 | 1004.4 |
| 20260504235102 | 68 | 270 | 5.0 | 7.0 | 0.00 | 0.00 | 0.00 | 35 | 1004.1 |
| 20260504234002 | 68 | 203 | 9.0 | 9.0 | 0.00 | 0.00 | 0.00 | 34 | 1003.7 |
| 20260504231802 | 73 | 180 | 9.0 | 9.0 | 0.00 | 0.00 | 0.00 | 30 | 1003.4 |
| 20260504230701 | 73 | 135 | 9.0 | 9.0 | 0.00 | 0.00 | 0.00 | 30 | 1003.4 |
| 20260504225603 | 74 | 113 | 7.0 | 7.0 | 0.00 | 0.00 | 0.00 | 30 | 1003.0 |
| 20260504224402 | 75 | 203 | 9.0 | 9.0 | 0.00 | 0.00 | 0.00 | 30 | 1003.0 |
| 20260504223302 | 76 | 180 | 5.0 | 10.0 | 0.00 | 0.00 | 0.00 | 29 | 1002.7 |
| 20260504221102 | 77 | 180 | 6.0 | 9.0 | 0.00 | 0.00 | 0.00 | 29 | 1002.4 |
| 20260504220003 | 77 | 180 | 4.0 | 5.0 | 0.00 | 0.00 | 0.00 | 27 | 1001.7 |
| 20260504213802 | 79 | 203 | 3.0 | 9.0 | 0.00 | 0.00 | 0.00 | 27 | 1001.7 |
| 20260504212702 | 79 | 113 | 3.0 | 12.0 | 0.00 | 0.00 | 0.00 | 27 | 1001.7 |
| 20260504211602 | 79 | 135 | 4.0 | 7.0 | 0.00 | 0.00 | 0.00 | 30 | 1001.4 |
| 20260504210502 | 79 | 158 | 5.0 | 11.0 | 0.00 | 0.00 | 0.00 | 30 | 1001.4 |
| 20260504205402 | 80 | 180 | 5.0 | 6.0 | 0.00 | 0.00 | 0.00 | 31 | 1001.4 |
| 20260504204202 | 79 | 158 | 4.0 | 8.0 | 0.00 | 0.00 | 0.00 | 32 | 1001.4 |
| 20260504203102 | 79 | 180 | 4.0 | 7.0 | 0.00 | 0.00 | 0.00 | 34 | 1001.4 |
| 20260504202003 | 80 | 270 | 3.0 | 8.0 | 0.00 | 0.00 | 0.00 | 35 | 1001.4 |
| 20260504200902 | 79 | 203 | 7.0 | 7.0 | 0.00 | 0.00 | 0.00 | 35 | 1001.4 |
| 20260504193602 | 79 | 180 | 3.0 | 11.0 | 0.00 | 0.00 | 0.00 | 35 | 1001.0 |
| 20260504192502 | 80 | 203 | 5.0 | 9.0 | 0.00 | 0.00 | 0.00 | 35 | 1001.0 |
| 20260504191302 | 79 | 180 | 7.0 | 7.0 | 0.00 | 0.00 | 0.00 | 35 | 1001.0 |
| 20260504190202 | 80 | 180 | 9.0 | 9.0 | 0.00 | 0.00 | 0.00 | 35 | 1001.0 |
| 20260504185003 | 80 | 68 | 6.0 | 7.0 | 0.00 | 0.00 | 0.00 | 32 | 1000.7 |
| 20260504183902 | 80 | 113 | 3.0 | 6.0 | 0.00 | 0.00 | 0.00 | 34 | 1000.3 |
| 20260504182702 | 80 | 135 | 4.0 | 8.0 | 0.00 | 0.00 | 0.00 | 32 | 1000.7 |
| 20260504181503 | 80 | 180 | 7.0 | 7.0 | 0.00 | 0.00 | 0.00 | 32 | 1000.7 |
| 20260504180502 | 81 | 203 | 3.0 | 6.0 | 0.00 | 0.00 | 0.00 | 31 | 1000.7 |
| 20260504175403 | 80 | 315 | 4.0 | 6.0 | 0.00 | 0.00 | 0.00 | 31 | 1001.0 |
| 20260504174203 | 80 | 338 | 2.0 | 5.0 | 0.00 | 0.00 | 0.00 | 34 | 1001.0 |
| 20260504173202 | 79 | 248 | 4.0 | 7.0 | 0.00 | 0.00 | 0.00 | 34 | 1000.7 |